Tracking 22130 objects as of 21-Jan-2021
HD Live streaming from Space Station
objects crossing your sky now

STARLINK-1667

Track STARLINK-1667 now!
10-day predictions
STARLINK-1667 is classified as:


NORAD ID: 46155
Int'l Code: 2020-057AQ
Perigee: 553.3 km
Apogee: 555.4 km
Inclination: 53.1 °
Period: 95.6 minutes
Semi major axis: 6925 km
RCS: Unknown
Launch date: August 18, 2020
Source: United States (US)
Launch site: AIR FORCE EASTERN TEST RANGE (AFETR)
aabbcc
Your satellite tracking list
Your tracking list is empty




NASA's NSSDC Master Catalog

Two Line Element Set (TLE):
1 46155U 20057AQ  21021.44334172 -.00001597  00000-0 -88380-4 0  9994
2 46155  53.0580  45.9099 0001537  66.8870 293.2281 15.06391634 25520
Source of the keplerian elements: AFSPC